This is the latest recevied weather packets stored in our database for station/object WA6OOO. If no packets are shown the sender has not sent any weather packets the latest 10 day(s).
| Time | Temp. | Humidity | Pressure | Rain* | Wind** | Luminosity | Snow |
|---|---|---|---|---|---|---|---|
| 1788276747 | 16.67° C | 92% | 1019.3 hPa | 0 mm | - | 152 W/m² | - |
| 1788276447 | 16.11° C | 93% | 1019 hPa | 0 mm | - | 78 W/m² | - |
| 1788276146 | 16.11° C | 92% | 1018.8 hPa | 0 mm | - | 85 W/m² | - |
| 1788275841 | 16.11° C | 92% | 1018.9 hPa | 0 mm | - | 142 W/m² | - |
| 1788275541 | 16.67° C | 91% | 1018.9 hPa | 0 mm | - | 120 W/m² | - |
| 1788275235 | 16.67° C | 92% | 1018.7 hPa | 0 mm | - | 102 W/m² | - |
| 1788274933 | 16.11° C | 93% | 1018.8 hPa | 0 mm | - | 90 W/m² | - |
| 1788274631 | 16.11° C | 94% | 1018.7 hPa | 0 mm | - | 76 W/m² | - |
| 1788274326 | 16.11° C | 96% | 1018.7 hPa | 0 mm | - | 90 W/m² | - |
| 1788274022 | 15.56° C | 96% | 1018.5 hPa | 0 mm | - | 68 W/m² | - |
| 1788273716 | 15° C | 96% | 1018.5 hPa | 0 mm | - | 74 W/m² | - |
| 1788273412 | 15° C | 96% | 1018.7 hPa | 0 mm | - | 42 W/m² | - |
| 1788273108 | 15° C | 96% | 1018.6 hPa | 0 mm | - | 61 W/m² | - |
| 1788272804 | 15° C | 96% | 1018.5 hPa | 0 mm | - | 46 W/m² | - |
| 1788272503 | 15° C | 96% | 1018.5 hPa | 0 mm | - | 40 W/m² | - |
| 1788272197 | 15° C | 96% | 1018.5 hPa | 0 mm | - | 38 W/m² | - |
| 1788271897 | 15° C | 96% | 1018.6 hPa | 0 mm | - | 37 W/m² | - |
| 1788271596 | 15° C | 96% | 1018.4 hPa | 0 mm | - | 34 W/m² | - |
| 1788271295 | 15° C | 96% | 1018.3 hPa | 0 mm | - | 24 W/m² | - |
| 1788270990 | 15° C | 96% | 1018.1 hPa | 0 mm | - | 18 W/m² | - |
| 1788270686 | 15° C | 96% | 1018.2 hPa | 0 mm | - | 12 W/m² | - |
| 1788270381 | 15° C | 96% | 1018.3 hPa | 0 mm | - | 8 W/m² | - |
| 1788270076 | 15° C | 96% | 1018 hPa | 0 mm | - | 7 W/m² | - |
| 1788269775 | 15° C | 96% | 1018.1 hPa | 0 mm | - | 5 W/m² | - |
| 1788269474 | 15° C | 95% | 1017.8 hPa | 0 mm | - | 3 W/m² | - |
* Rain latest hour (hover to see other rain measurements)
** Current wind speed in m/s (hover to see current wind gust speed)